When you browse on this site, cookies collect data to enhance your experience and personalize the content and advertising you see.
Visit our Privacy Policy to learn more. By continuing to use the site, you agree to this use of cookies and data.

Meteo pe oră la Francistown

Astăzi, 28 Septembrie, Luni

Timp Temperatura Precipitaţii Vânt Presiune Umiditate
00:00 +21°C° 0 mm 4 m/s 674 mmHg 60%
01:00 +20°C° 0 mm 4 m/s 674 mmHg 66%
02:00 +17°C° 0 mm 5 m/s 674 mmHg 74%
03:00 +17°C° 0 mm 5 m/s 674 mmHg 77%
04:00 +17°C° 0 mm 5 m/s 674 mmHg 80%
05:00 +16°C° 0 mm 5 m/s 674 mmHg 83%
06:00 +17°C° 0 mm 5 m/s 675 mmHg 76%
07:00 +20°C° 0 mm 6 m/s 675 mmHg 70%
08:00 +21°C° 0 mm 5 m/s 676 mmHg 61%
09:00 +26°C° 0 mm 5 m/s 677 mmHg 51%
10:00 +29°C° 0 mm 5 m/s 677 mmHg 40%
11:00 +33°C° 0 mm 5 m/s 677 mmHg 30%
12:00 +35°C° 0 mm 5 m/s 676 mmHg 26%
13:00 +36°C° 0 mm 4 m/s 676 mmHg 22%
14:00 +38°C° 0 mm 4 m/s 675 mmHg 18%
15:00 +37°C° 0 mm 5 m/s 675 mmHg 20%
16:00 +36°C° 0 mm 6 m/s 675 mmHg 23%
17:00 +35°C° 0 mm 7 m/s 675 mmHg 25%
18:00 +32°C° 0 mm 7 m/s 675 mmHg 32%
19:00 +29°C° 0 mm 7 m/s 675 mmHg 39%
20:00 +27°C° 0 mm 6 m/s 675 mmHg 46%
21:00 +24°C° 0 mm 7 m/s 676 mmHg 54%
22:00 +23°C° 0 mm 7 m/s 676 mmHg 62%
23:00 +22°C° 0 mm 8 m/s 676 mmHg 69%

Mâine, 29 Septembrie, Marţi

Timp Temperatura Precipitaţii Vânt Presiune Umiditate
00:00 +21°C° 0 mm 7 m/s 676 mmHg 74%
01:00 +20°C° 0 mm 5 m/s 675 mmHg 78%
02:00 +19°C° 0 mm 4 m/s 675 mmHg 82%
03:00 +19°C° 0 mm 5 m/s 675 mmHg 83%
04:00 +19°C° 0 mm 5 m/s 675 mmHg 84%
05:00 +19°C° 0 mm 5 m/s 676 mmHg 85%
06:00 +20°C° 0 mm 5 m/s 676 mmHg 80%
07:00 +21°C° 0 mm 6 m/s 677 mmHg 74%
08:00 +22°C° 0 mm 6 m/s 678 mmHg 69%
09:00 +24°C° 0 mm 6 m/s 678 mmHg 61%
10:00 +27°C° 0 mm 6 m/s 678 mmHg 53%
11:00 +29°C° 0 mm 6 m/s 678 mmHg 44%
12:00 +32°C° 0 mm 6 m/s 677 mmHg 41%
13:00 +33°C° 0 mm 6 m/s 677 mmHg 38%
14:00 +34°C° 0 mm 7 m/s 676 mmHg 35%
15:00 +32°C° 0.8 mm 6 m/s 676 mmHg 38%
16:00 +29°C° 0.8 mm 5 m/s 676 mmHg 41%
17:00 +27°C° 0.8 mm 4 m/s 675 mmHg 44%
18:00 +26°C° 0 mm 4 m/s 676 mmHg 50%
19:00 +25°C° 0 mm 5 m/s 676 mmHg 56%
20:00 +23°C° 0 mm 6 m/s 677 mmHg 62%
21:00 +22°C° 0 mm 6 m/s 677 mmHg 66%
22:00 +21°C° 0 mm 6 m/s 677 mmHg 70%
23:00 +20°C° 0 mm 5 m/s 676 mmHg 73%

Poimâine, 30 Septembrie, Miercuri

Timp Temperatura Precipitaţii Vânt Presiune Umiditate
00:00 +20°C° 0 mm 5 m/s 676 mmHg 76%
01:00 +19°C° 0 mm 5 m/s 675 mmHg 79%
02:00 +19°C° 0 mm 5 m/s 675 mmHg 82%
03:00 +19°C° 0 mm 5 m/s 675 mmHg 84%
04:00 +17°C° 0 mm 5 m/s 675 mmHg 86%
05:00 +18°C° 0 mm 4 m/s 675 mmHg 89%
06:00 +19°C° 0 mm 5 m/s 676 mmHg 84%
07:00 +20°C° 0 mm 6 m/s 676 mmHg 79%
08:00 +21°C° 0 mm 7 m/s 677 mmHg 73%
09:00 +23°C° 0 mm 7 m/s 677 mmHg 65%
10:00 +26°C° 0 mm 8 m/s 677 mmHg 57%
11:00 +28°C° 0 mm 8 m/s 677 mmHg 49%
12:00 +29°C° 0 mm 7 m/s 676 mmHg 44%
13:00 +32°C° 0 mm 7 m/s 676 mmHg 40%
14:00 +34°C° 0 mm 6 m/s 675 mmHg 35%
15:00 +33°C° 0 mm 6 m/s 674 mmHg 36%
16:00 +32°C° 0 mm 6 m/s 674 mmHg 36%
17:00 +30°C° 0 mm 6 m/s 673 mmHg 37%
18:00 +29°C° 0 mm 6 m/s 673 mmHg 39%
19:00 +28°C° 0 mm 5 m/s 673 mmHg 41%
20:00 +27°C° 0 mm 5 m/s 674 mmHg 43%
21:00 +27°C° 0 mm 5 m/s 674 mmHg 45%
22:00 +26°C° 0 mm 5 m/s 674 mmHg 48%
23:00 +26°C° 0 mm 6 m/s 674 mmHg 50%

1 Octombrie, Joi

Timp Temperatura Precipitaţii Vânt Presiune Umiditate
00:00 +25°C° 0 mm 5 m/s 674 mmHg 52%
01:00 +23°C° 0 mm 5 m/s 673 mmHg 54%
02:00 +23°C° 0 mm 5 m/s 673 mmHg 56%
03:00 +21°C° 0 mm 4 m/s 672 mmHg 60%
04:00 +20°C° 0 mm 3 m/s 672 mmHg 64%
05:00 +19°C° 0 mm 3 m/s 672 mmHg 68%
06:00 +21°C° 0 mm 2 m/s 672 mmHg 64%
07:00 +23°C° 0 mm 2 m/s 673 mmHg 59%
08:00 +24°C° 0 mm 1 m/s 673 mmHg 54%
09:00 +28°C° 0 mm 4 m/s 674 mmHg 43%
10:00 +32°C° 0 mm 6 m/s 674 mmHg 32%
11:00 +37°C° 0 mm 8 m/s 675 mmHg 21%
12:00 +38°C° 0 mm 8 m/s 674 mmHg 20%
13:00 +39°C° 0 mm 8 m/s 674 mmHg 19%
14:00 +40°C° 0 mm 8 m/s 673 mmHg 18%
15:00 +39°C° 0 mm 7 m/s 673 mmHg 18%
16:00 +39°C° 0 mm 6 m/s 673 mmHg 18%
17:00 +37°C° 0 mm 5 m/s 672 mmHg 19%
18:00 +35°C° 0 mm 4 m/s 673 mmHg 21%
19:00 +33°C° 0 mm 3 m/s 673 mmHg 24%
20:00 +30°C° 0 mm 3 m/s 673 mmHg 27%
21:00 +30°C° 0 mm 3 m/s 673 mmHg 28%
22:00 +29°C° 0 mm 3 m/s 674 mmHg 29%
23:00 +28°C° 0 mm 3 m/s 674 mmHg 31%

2 Octombrie, Vineri

Timp Temperatura Precipitaţii Vânt Presiune Umiditate
00:00 +27°C° 0.1 mm 4 m/s 674 mmHg 30%
01:00 +26°C° 0.1 mm 6 m/s 675 mmHg 29%
02:00 +23°C° 0.1 mm 7 m/s 675 mmHg 29%
03:00 +22°C° 0 mm 7 m/s 675 mmHg 46%
04:00 +21°C° 0 mm 7 m/s 675 mmHg 63%
05:00 +20°C° 0 mm 7 m/s 676 mmHg 80%
06:00 +20°C° 0 mm 8 m/s 676 mmHg 77%
07:00 +20°C° 0 mm 8 m/s 677 mmHg 75%
08:00 +20°C° 0 mm 8 m/s 677 mmHg 73%
09:00 +22°C° 0 mm 8 m/s 677 mmHg 66%
10:00 +23°C° 0 mm 8 m/s 677 mmHg 58%
11:00 +26°C° 0 mm 9 m/s 678 mmHg 51%
12:00 +26°C° 0 mm 9 m/s 677 mmHg 48%
13:00 +27°C° 0 mm 9 m/s 677 mmHg 45%
14:00 +28°C° 0 mm 9 m/s 677 mmHg 42%
15:00 +26°C° 0.1 mm 9 m/s 677 mmHg 47%
16:00 +22°C° 0.1 mm 10 m/s 676 mmHg 53%
17:00 +19°C° 0.1 mm 11 m/s 676 mmHg 58%
18:00 +17°C° 0.3 mm 10 m/s 677 mmHg 63%
19:00 +16°C° 0.3 mm 10 m/s 678 mmHg 68%
20:00 +13°C° 0.3 mm 10 m/s 678 mmHg 74%
21:00 +13°C° 0 mm 10 m/s 679 mmHg 74%
22:00 +13°C° 0 mm 10 m/s 679 mmHg 75%
23:00 +13°C° 0 mm 10 m/s 679 mmHg 76%

3 Octombrie, Sâmbătă

Timp Temperatura Precipitaţii Vânt Presiune Umiditate
00:00 +12°C° 0 mm 10 m/s 679 mmHg 76%
01:00 +12°C° 0 mm 10 m/s 679 mmHg 75%
02:00 +12°C° 0 mm 9 m/s 678 mmHg 75%
03:00 +12°C° 0 mm 9 m/s 679 mmHg 76%
04:00 +11°C° 0 mm 9 m/s 679 mmHg 77%
05:00 +11°C° 0 mm 9 m/s 679 mmHg 78%
06:00 +11°C° 0 mm 9 m/s 680 mmHg 77%
07:00 +11°C° 0 mm 8 m/s 680 mmHg 77%
08:00 +11°C° 0 mm 8 m/s 681 mmHg 76%
09:00 +12°C° 0.1 mm 8 m/s 681 mmHg 73%
10:00 +13°C° 0.1 mm 8 m/s 681 mmHg 70%
11:00 +15°C° 0.1 mm 9 m/s 681 mmHg 66%
12:00 +15°C° 0 mm 9 m/s 681 mmHg 63%
13:00 +16°C° 0 mm 9 m/s 680 mmHg 60%
14:00 +17°C° 0 mm 9 m/s 680 mmHg 57%
15:00 +16°C° 0 mm 9 m/s 680 mmHg 59%
16:00 +16°C° 0 mm 9 m/s 679 mmHg 61%
17:00 +15°C° 0 mm 9 m/s 679 mmHg 63%
18:00 +13°C° 0 mm 9 m/s 680 mmHg 67%
19:00 +12°C° 0 mm 9 m/s 680 mmHg 71%
20:00 +11°C° 0 mm 8 m/s 681 mmHg 76%
21:00 +11°C° 0 mm 9 m/s 681 mmHg 75%
22:00 +11°C° 0 mm 9 m/s 681 mmHg 75%
23:00 +11°C° 0 mm 9 m/s 681 mmHg 75%
Arată mai mult